Location: Ash Swamp
(41.5170°N, 74.6157°W)
Time: 02:42:21
(UTC+00:00)

Cosmos 2237 Rocket - Pass Details

Date: 14 July 2020
Orbit: 835 x 850 km, 71.0° (Epoch: 14 August)

Event Time Altitude Azimuth Distance (km) Brightness Sun altitude
Rises 02:59:42 0° 235° (SW) 3,402 5.3 -20.6°
Reaches altitude 10° 03:02:30 10° 248° (WSW) 2,472 4.7 -20.8°
Maximum altitude 03:07:18 28° 305° (NW) 1,561 4.2 -21.3°
Drops below altitude 10° 03:12:07 10° 3° (N) 2,484 5.4 -21.7°
Sets 03:14:58 0° 16° (NNE) 3,423 6.1 -22.0°
